Погода в Толмачёве

Россия / Новосибирская область     54°58′44″N   82°44′03″E
темп.,
°C
ветер,
м/с
пор.,
м/с
влажн.,
%
обл.,
%
осадки,
мм/ч
давл.,
гПа
погр.,
м
8 марта, пн
пн801:00−13ююв448069 0.0 102154
04:00−9ююв51189100 0.0 1018216
07:00−6ююв71393100 0.0 1015394
10:00−5ю81388100 0.0 1012438
13:00−2ю81582100 0.0 1009579
16:00−1ююз91581100 0.0 1006758
19:00−3юз71488100 0.0 1006906
22:00−2з81395100 0.6 1009762
9 марта, вт
вт901:00−12з5129175 0.6 1015309
04:00−14зюз4109276 0.0 1020227
07:00−15юз4109287 0.0 1023209
10:00−14ююз511880 0.0 1025302
13:00−10ююз7138634 0.0 1025545
16:00−7ююз6117922 0.0 1024723
19:00−10ююз4108829 0.0 1023216
22:00−12ююз6138832 0.0 1022285
10 марта, ср
ср1001:00−13ююз5128816 0.0 1021269
04:00−15ю410918 0.0 1020163
07:00−15ю499548 0.0 1019150
10:00−11ююз5991100 0.0 1019282
13:00−8ю468998 0.0 1017330
16:00−5ююв3588100 0.0 1015338
19:00−4юв51193100 0.0 1010400
22:00−1ююв81590100 0.0 1005660
11 марта, чт
чт1101:000ю91696100 0.3 1000761
04:00+2юз816100100 0.9 998642
07:00−4юз9168597 1.1 1002780
10:00−9юз71388100 0.1 1008749
13:00−7юз71287100 0.1 1011671
16:00−5юз71187100 0.0 1012869
19:00−7юз61390100 0.1 1013800
22:00−9ююз61488100 0.1 1016625
12 марта, пт
пт1201:00−10ююз61389100 0.1 1016407
04:00−9ю61486100 0.0 1012518
07:00−6юз71490100 1.1 1010924
10:00−13юз8148566 0.1 1015924
13:00−13юз8128483 0.1 1018947
16:00−13юз71185100 0.0 1019850
19:00−15зюз51189100 0.1 1019823
22:00−17зюз5129499 0.1 1023623